Location: ????????
(55.3155°N, 39.2900°E)
Time: 01:17:24
(UTC+00:00)

Cosmos 2297 - Pass Details

Date: 14 April 2024
Orbit: 834 x 859 km, 71.0° (Epoch: 18 May)

Event Time Altitude Azimuth Distance (km) Brightness Sun altitude
Rises 01:20:00 0° 325° (NW) 3,439 6.8 -8.7°
Reaches altitude 10° 01:22:28 10° 326° (NW) 2,502 6.1 -8.4°
Maximum altitude 01:28:15 89° 58° (ENE) 867 3.8 -7.7°
Drops below altitude 10° 01:34:00 10° 148° (SSE) 2,493 6.2 -6.9°
Sets 01:36:27 0° 148° (SSE) 3,426 6.9 -6.6°
